[Iaude] MPEC B112: 2023 RZ10 [a=2.29,e=0.50,i=19.4,H=20.10]

mpec at marsden.cfa.harvard.edu mpec at marsden.cfa.harvard.edu
Tue Jan 23 09:42:30 EST 2024


M.P.E.C. 2024-B112                             Issued 2024 January 23, 14:40 UT

     The Minor Planet Electronic Circulars contain information on unusual
         minor planets, routine data on comets and natural satellites,
         and occasional editorial announcements.  They are published
    on behalf of Division F of the International Astronomical Union by the
          Minor Planet Center, Smithsonian Astrophysical Observatory,
                          Cambridge, MA 02138, U.S.A.
			  
             Prepared using the Tamkin Foundation Computer Network

                              MPC at CFA.HARVARD.EDU
            URL https://www.minorplanetcenter.net/    ISSN 1523-6714

                                   2023 RZ10                                    


                           Revision to MPEC 2023-R235                           

Additional Observations:
     K23R10Z  C2000 05 03.28674013 27 02.55 -00 58 07.3                WEB112645
     K23R10Z  C2000 05 03.28756913 27 02.50 -00 58 06.3                WEB112645
     K23R10Z  C2000 05 03.29005713 27 02.36 -00 58 04.9                WEB112645
     K23R10Z  C2000 05 03.31670113 27 01.09 -00 57 47.4                WEB112645
     K23R10Z  C2000 05 03.31753013 27 01.08 -00 57 46.7                WEB112645
     K23R10Z 5C2014 04 23.29683 14 35 43.06 -03 51 33.3          23.4   EB112W84
     K23R10Z 5C2014 04 23.30001 14 35 42.83 -03 51 30.9                 EB112W84
     K23R10Z 5C2014 04 23.30317 14 35 42.62 -03 51 28.5                 EB112W84
     K23R10Z 5C2014 04 23.30634 14 35 42.40 -03 51 26.2                 EB112W84
     K23R10Z 5C2017 02 18.26693502 24 50.96 -04 41 57.9                WEB112T14
     K23R10Z 5C2017 02 18.26832402 24 51.23 -04 41 56.7                WEB112T14
     K23R10Z 5C2017 02 19.22151202 28 16.41 -04 30 27.8                WEB112T14
     K23R10Z 5C2017 02 19.22290102 28 16.71 -04 30 26.9                WEB112T14

Observer details:
645 Apache Point-Sloan Digital Sky Survey.  Observer .  Measurer S. Deen.
    2.5-m reflector + CCD.
T14 Canada-France-Hawaii Telescope, Maunakea.  Observer .  Measurer S. Deen.
    3.58-m Canada-France-Hawaii Telescope + CCD.
W84 Cerro Tololo-DECam.  Observers L. Allen, D. Trilling, D. James, D.
    Herrera, C. Fuentes, J. Rajagopal, T. Axelrod.  Measurer F. Valdes.  4.0-m
    CTIO reflector + DECam.

First and last observations above in comparison with prediction:
Residuals in seconds of arc (or two decimals in degrees), reference and Delta-T
000503 645 0.16- 0.01-    170219 T14 0.06- 0.02-    MPO774635   -0.05 days

Orbital elements:
2023 RZ10                                                Earth MOID = 0.3240 AU
Epoch 2023 Sept. 13.0 TT = JDT 2460200.5                Veres                   
M 318.60154              (2000.0)            P               Q                  
n   0.28374939     Peri.  255.34420     -0.02976494     -0.99467739             
a   2.2935740      Node   197.29574     +0.99618580     -0.02142129             
e   0.5038511      Incl.   19.37809     +0.08202374     -0.10078702             
P   3.47           H   20.10          G   0.15           U   1                  
Residuals in seconds of arc
000503 645  0.1+  0.1-    230911 F52  0.1+  0.1-    231005 G96  0.1-  0.2-
000503 645  0.0   0.3+    230911 F52  0.1+  0.0     231005 G96  0.1+  0.2-
000503 645  0.4-  0.0     230911 033  0.0   0.1+    231005 F51  0.0   0.1+
000503 645  0.2-  0.3-    230912 033  0.1-  0.1-    231005 F51  0.1+  0.0
000503 645  0.3+  0.2-    230912 033  0.1-  0.0     231005 F51  0.1-  0.1-
140423 W84  0.1-  0.2+    230913 H21  0.7-  0.6+    231005 F51  0.1-  0.0
140423 W84  0.1-  0.1+    230913 H21  0.9-  0.5+    231008 F51  0.2-  0.0
140423 W84  0.0   0.0     230913 H21  0.7-  0.3+    231008 F51  0.0   0.3-
140423 W84  0.1+  0.2-    230914 F52  0.1+  0.1-    231008 F51  0.1+  0.2+
170218 T14  0.4+  0.1+    230914 F52  0.1-  0.1+    231008 F51  0.3+  0.2+
170218 T14  0.1+  0.3+    230914 F52  0.3+  0.5-    231008 F51  0.1+  0.0
170219 T14  0.0   0.5+    230914 F52  0.1+  0.0     231008 F51  0.0   0.1+
170219 T14  0.1+  0.3+    230915 033  0.2-  0.2+    231008 F51  0.2+  0.3+
230904 F51  0.4+  0.0     230915 033  0.1-  0.2+    231014 G96  0.0   0.5-
230904 F51  0.1+  0.0     230915 033  0.1-  0.2+    231014 G96  0.2-  0.3+
230904 F51  0.1+  0.0     230915 033  0.1-  0.0     231014 G96  0.1+  0.3-
230904 F51  0.3-  0.1-    230915 033  0.1+  0.1+    231014 G96  0.2-  0.3+
230905 F51  0.2-  0.1-    230915 033  0.1-  0.1-    231014 V00  0.2+  0.1-
230905 F52  0.3+  0.2-    230915 033  0.0   0.0     231014 V00  0.0   0.1-
230905 F51  0.2+  0.0     230916 G96  0.3+  0.2+    231014 V00  0.1-  0.0
230905 F51  0.0   0.2+    230916 G96  0.1-  0.1-    231014 V00  0.3-  0.1+
230905 F52  0.1-  0.1-    230916 G96  0.3+  0.1+    231015 F52  0.1-  0.1+
230905 F52  0.1+  0.1-    230916 G96  0.1-  0.4+    231015 F52  0.0   0.0
230910 F52  0.3+  0.0     230916 I52  0.1-  0.4-    231015 F52  0.0   0.0
230910 F52  0.2+  0.1+    230916 I52  0.3+  0.1+    231015 F52  0.1-  0.1+
230910 F52  0.0   0.3-    230916 I52  0.3+  0.2-    231015 F52  0.0   0.2+
230910 F51  0.0   0.1+    230916 I52  0.1+  0.1+    231015 F52  0.0   0.1+
230910 F51  0.1+  0.0     231003 291  0.2+  0.1-    231015 F52  0.3-  0.3+
230911 F51  0.1-  0.1-    231003 291  0.1+  0.0     231015 F52  0.0   0.2+
230911 F51  0.2+  0.0     231003 291  0.2+  0.1-    231215 291  0.0   0.2+
230911 F51  0.0   0.1-    231005 G96  0.1+  0.1+    231215 291  0.1+  0.4+
230911 F51  0.0   0.0     231005 G96  0.1+  0.1+    231215 291  0.7+  0.7+

Ephemeris:
2023 RZ10                a,e,i = 2.29, 0.50, 19                  q = 1.1380
Date    TT    R. A. (2000) Decl.     Delta      r    Elong.  Phase     V
2023 12 24    00 12 49.2 -15 55 29   0.8459  1.2409    85.1    52.2    22.1
...
2024 01 08    00 53 01.1 -15 39 38   0.8612  1.1845    79.6    54.7    22.1
...
2024 01 16    01 17 02.9 -15 01 20   0.8649  1.1627    77.7    55.7    22.1
...
2024 01 22    01 36 09.6 -14 19 45   0.8660  1.1507    76.6    56.3    22.1
2024 01 23    01 39 25.9 -14 11 47   0.8661  1.1491    76.5    56.4    22.1
2024 01 24    01 42 43.7 -14 03 31   0.8662  1.1475    76.4    56.5    22.1
...
2024 01 30    02 02 59.7 -13 07 51   0.8661  1.1408    75.8    56.8    22.1
...
2024 02 07    02 31 17.8 -11 37 44   0.8660  1.1381    75.5    57.0    22.1
...
2024 02 22    03 28 00.3 -08 04 58   0.8703  1.1528    76.3    56.5    22.2

A. U. Tomatic                (C) Copyright 2024 MPC           M.P.E.C. 2024-B112





More information about the Iaude mailing list